AZU2978 SBGL-SBKP

Flight info

Callsign AZU2978
Flight time 0h 52m
Altitude 36000
Route SIDUR UZ10 EDMUS
Aircraft E195/M-SDE3GILORVW/S

Departure

Time 2026-05-05 03:15
Airport Rio Galeão – Tom Jobim International Airport (SBGL)

Arrival

Time 2026-05-05 04:07
Airport Viracopos International Airport (SBKP)
Time Latitude Longitude Altitude Speed Heading
2026-05-05 02:48 -22.81268 -43.25085 20 ft 0 kts 358°
2026-05-05 03:03 -22.81280 -43.25084 20 ft 4 kts 352°
2026-05-05 03:03 -22.81305 -43.25076 22 ft 4 kts 320°
2026-05-05 03:03 -22.81318 -43.25055 22 ft 3 kts 266°
2026-05-05 03:03 -22.81317 -43.25047 20 ft 0 kts 264°
2026-05-05 03:06 -22.81317 -43.25051 21 ft 1 kts 264°
2026-05-05 03:06 -22.81319 -43.25072 22 ft 4 kts 265°
2026-05-05 03:07 -22.81324 -43.25114 20 ft 7 kts 264°
2026-05-05 03:07 -22.81327 -43.25177 20 ft 10 kts 275°
2026-05-05 03:07 -22.81290 -43.25245 20 ft 11 kts 305°
2026-05-05 03:07 -22.81235 -43.25312 20 ft 12 kts 318°
2026-05-05 03:08 -22.81165 -43.25362 20 ft 12 kts 336°
2026-05-05 03:08 -22.81091 -43.25383 20 ft 10 kts 351°
2026-05-05 03:08 -22.81030 -43.25385 20 ft 8 kts
2026-05-05 03:08 -22.80981 -43.25382 22 ft 6 kts 347°
2026-05-05 03:09 -22.80956 -43.25409 21 ft 5 kts 305°
2026-05-05 03:09 -22.80943 -43.25433 22 ft 2 kts 296°
2026-05-05 03:09 -22.80941 -43.25440 23 ft 0 kts 294°
2026-05-05 03:09 -22.80940 -43.25440 23 ft 0 kts 294°
2026-05-05 03:11 -22.80938 -43.25446 26 ft 3 kts 293°
2026-05-05 03:11 -22.80918 -43.25496 27 ft 12 kts 296°
2026-05-05 03:12 -22.80852 -43.25584 24 ft 19 kts 346°
2026-05-05 03:12 -22.80740 -43.25520 24 ft 19 kts 35°
2026-05-05 03:12 -22.80624 -43.25445 23 ft 18 kts 11°
2026-05-05 03:12 -22.80552 -43.25508 29 ft 14 kts 303°
2026-05-05 03:13 -22.80472 -43.25573 29 ft 15 kts 327°
2026-05-05 03:13 -22.80369 -43.25614 27 ft 18 kts 14°
2026-05-05 03:13 -22.80265 -43.25531 24 ft 20 kts 39°
2026-05-05 03:13 -22.80173 -43.25447 26 ft 16 kts 70°
2026-05-05 03:14 -22.80140 -43.25325 24 ft 21 kts 75°
2026-05-05 03:14 -22.80031 -43.24903 28 ft 98 kts 74°
2026-05-05 03:14 -22.79780 -43.23927 60 ft 168 kts 75°
2026-05-05 03:14 -22.79391 -43.22484 353 ft 223 kts 75°
2026-05-05 03:15 -22.78990 -43.20901 1883 ft 219 kts 73°
2026-05-05 03:15 -22.78568 -43.19243 3078 ft 237 kts 72°
2026-05-05 03:15 -22.78086 -43.17475 4244 ft 248 kts 71°
2026-05-05 03:15 -22.77605 -43.15666 5077 ft 263 kts 78°
2026-05-05 03:16 -22.77329 -43.13638 5783 ft 281 kts 83°
2026-05-05 03:16 -22.77000 -43.11512 6696 ft 290 kts 78°
2026-05-05 03:16 -22.76547 -43.09360 7645 ft 295 kts 78°
2026-05-05 03:16 -22.76097 -43.07182 8630 ft 298 kts 78°
2026-05-05 03:17 -22.75631 -43.04977 9650 ft 302 kts 78°
2026-05-05 03:17 -22.75154 -43.02748 10561 ft 311 kts 76°
2026-05-05 03:17 -22.74144 -43.00607 11061 ft 329 kts 48°
2026-05-05 03:17 -22.72275 -42.99169 11917 ft 334 kts 22°
2026-05-05 03:18 -22.70022 -42.98613 12854 ft 334 kts
2026-05-05 03:18 -22.67736 -42.99000 13802 ft 334 kts 337°
2026-05-05 03:18 -22.65726 -43.00232 14722 ft 333 kts 322°
2026-05-05 03:18 -22.63927 -43.01806 15704 ft 333 kts 315°
2026-05-05 03:19 -22.60174 -43.04807 17521 ft 342 kts 325°
2026-05-05 03:19 -22.58473 -43.06551 18341 ft 337 kts 300°
2026-05-05 03:19 -22.57563 -43.08870 19075 ft 336 kts 283°
2026-05-05 03:20 -22.57022 -43.11344 19778 ft 340 kts 282°
2026-05-05 03:20 -22.56447 -43.13837 20453 ft 343 kts 282°
2026-05-05 03:20 -22.55860 -43.16354 21151 ft 347 kts 282°
2026-05-05 03:20 -22.55278 -43.18900 21842 ft 350 kts 282°
2026-05-05 03:21 -22.54700 -43.21478 22498 ft 354 kts 281°
2026-05-05 03:21 -22.54122 -43.24088 23148 ft 358 kts 281°
2026-05-05 03:21 -22.53662 -43.26746 23754 ft 361 kts 273°
2026-05-05 03:21 -22.53862 -43.29440 24251 ft 361 kts 256°
2026-05-05 03:22 -22.54490 -43.32077 24797 ft 363 kts 255°
2026-05-05 03:22 -22.55126 -43.34730 25309 ft 365 kts 255°
2026-05-05 03:22 -22.55774 -43.37398 25843 ft 368 kts 255°
2026-05-05 03:22 -22.56434 -43.40088 26310 ft 371 kts 255°
2026-05-05 03:23 -22.57100 -43.42786 26853 ft 372 kts 255°
2026-05-05 03:23 -22.57772 -43.45489 27425 ft 373 kts 255°
2026-05-05 03:23 -22.58450 -43.48201 27961 ft 374 kts 255°
2026-05-05 03:23 -22.59091 -43.50952 28310 ft 379 kts 256°
2026-05-05 03:24 -22.59728 -43.53737 28720 ft 382 kts 256°
2026-05-05 03:24 -22.60374 -43.56537 29158 ft 384 kts 255°
2026-05-05 03:24 -22.61023 -43.59328 29762 ft 381 kts 255°
2026-05-05 03:24 -22.61658 -43.62064 30315 ft 379 kts 256°
2026-05-05 03:25 -22.62300 -43.64853 30822 ft 375 kts 255°
2026-05-05 03:25 -22.62928 -43.67544 31284 ft 373 kts 255°
2026-05-05 03:25 -22.63562 -43.70262 31730 ft 372 kts 255°
2026-05-05 03:25 -22.64192 -43.72975 32159 ft 371 kts 255°
2026-05-05 03:26 -22.64820 -43.75674 32590 ft 369 kts 255°
2026-05-05 03:26 -22.65444 -43.78369 33008 ft 368 kts 255°
2026-05-05 03:26 -22.66065 -43.81052 33400 ft 367 kts 255°
2026-05-05 03:26 -22.66685 -43.83730 33785 ft 365 kts 255°
2026-05-05 03:27 -22.67299 -43.86383 34220 ft 362 kts 255°
2026-05-05 03:27 -22.67909 -43.89019 34525 ft 361 kts 255°
2026-05-05 03:27 -22.68518 -43.91661 34736 ft 363 kts 255°
2026-05-05 03:27 -22.69130 -43.94309 34987 ft 362 kts 255°
2026-05-05 03:28 -22.69740 -43.96957 35258 ft 361 kts 255°
2026-05-05 03:28 -22.70347 -43.99593 35543 ft 361 kts 255°
2026-05-05 03:28 -22.70953 -44.02226 35773 ft 360 kts 255°
2026-05-05 03:28 -22.71555 -44.04846 36089 ft 358 kts 255°
2026-05-05 03:29 -22.72772 -44.10136 36175 ft 367 kts 255°
2026-05-05 03:29 -22.74023 -44.15582 36203 ft 377 kts 255°
2026-05-05 03:30 -22.75351 -44.21036 36223 ft 360 kts 248°
2026-05-05 03:30 -22.77872 -44.25716 36248 ft 365 kts 238°
2026-05-05 03:31 -22.80665 -44.30404 36231 ft 376 kts 238°
2026-05-05 03:31 -22.83565 -44.35227 36220 ft 387 kts 238°
2026-05-05 03:32 -22.86528 -44.40141 36217 ft 390 kts 238°
2026-05-05 03:32 -22.89501 -44.45063 36208 ft 390 kts 238°
2026-05-05 03:33 -22.92466 -44.49979 36203 ft 390 kts 238°
2026-05-05 03:33 -22.95450 -44.54928 36224 ft 393 kts 238°
2026-05-05 03:34 -22.98445 -44.59897 36206 ft 394 kts 238°
2026-05-05 03:34 -23.01426 -44.64851 36208 ft 391 kts 238°
2026-05-05 03:35 -23.03618 -44.70216 36256 ft 393 kts 254°
2026-05-05 03:35 -23.04942 -44.75927 36204 ft 393 kts 255°
2026-05-05 03:36 -23.06250 -44.81684 36192 ft 393 kts 255°
2026-05-05 03:36 -23.07553 -44.87466 36234 ft 394 kts 255°
2026-05-05 03:37 -23.08847 -44.93250 36225 ft 394 kts 255°
2026-05-05 03:37 -23.10140 -44.99035 36232 ft 394 kts 255°
2026-05-05 03:38 -23.11431 -45.04821 36231 ft 394 kts 255°
2026-05-05 03:38 -23.12720 -45.10608 36238 ft 394 kts 255°
2026-05-05 03:39 -23.14007 -45.16400 36234 ft 394 kts 255°
2026-05-05 03:39 -23.15290 -45.22194 36237 ft 395 kts 255°
2026-05-05 03:40 -23.16574 -45.28002 36226 ft 395 kts 255°
2026-05-05 03:40 -23.17857 -45.33809 36234 ft 395 kts 255°
2026-05-05 03:41 -23.19132 -45.39617 36236 ft 395 kts 255°
2026-05-05 03:41 -23.20427 -45.45423 36229 ft 395 kts 255°
2026-05-05 03:42 -23.21723 -45.51230 36226 ft 395 kts 255°
2026-05-05 03:42 -23.23021 -45.57034 36242 ft 395 kts 253°
2026-05-05 03:43 -23.24642 -45.62725 36243 ft 394 kts 251°
2026-05-05 03:43 -23.26268 -45.68417 36247 ft 394 kts 251°
2026-05-05 03:44 -23.27057 -45.71230 35986 ft 393 kts 252°
2026-05-05 03:44 -23.27840 -45.74033 35765 ft 380 kts 252°
2026-05-05 03:44 -23.28597 -45.76749 35366 ft 373 kts 252°
2026-05-05 03:44 -23.29345 -45.79437 34839 ft 369 kts 252°
2026-05-05 03:45 -23.30084 -45.82092 34365 ft 365 kts 252°
2026-05-05 03:45 -23.30816 -45.84728 33857 ft 362 kts 252°
2026-05-05 03:45 -23.31543 -45.87341 33388 ft 362 kts 252°
2026-05-05 03:45 -23.32275 -45.89977 32918 ft 366 kts 252°
2026-05-05 03:46 -23.33016 -45.92642 32401 ft 371 kts 252°
2026-05-05 03:46 -23.33763 -45.95339 31867 ft 373 kts 252°
2026-05-05 03:46 -23.34511 -45.98046 31342 ft 375 kts 252°
2026-05-05 03:46 -23.35261 -46.00761 30877 ft 375 kts 252°
2026-05-05 03:47 -23.36012 -46.03478 30351 ft 375 kts 252°
2026-05-05 03:47 -23.36762 -46.06191 29851 ft 374 kts 252°
2026-05-05 03:47 -23.37510 -46.08896 29383 ft 374 kts 252°
2026-05-05 03:47 -23.38275 -46.11617 28881 ft 378 kts 251°
2026-05-05 03:48 -23.39050 -46.14350 28379 ft 379 kts 251°
2026-05-05 03:48 -23.39824 -46.17088 27881 ft 377 kts 251°
2026-05-05 03:48 -23.40593 -46.19812 27390 ft 376 kts 251°
2026-05-05 03:48 -23.41358 -46.22530 26901 ft 375 kts 251°
2026-05-05 03:49 -23.42120 -46.25233 26409 ft 373 kts 251°
2026-05-05 03:49 -23.42878 -46.27927 25922 ft 371 kts 251°
2026-05-05 03:49 -23.43631 -46.30609 25435 ft 370 kts 251°
2026-05-05 03:49 -23.44382 -46.33283 24953 ft 369 kts 251°
2026-05-05 03:50 -23.44978 -46.35993 24418 ft 371 kts 264°
2026-05-05 03:50 -23.44687 -46.38783 23991 ft 374 kts 283°
2026-05-05 03:50 -23.43634 -46.41389 23417 ft 380 kts 298°
2026-05-05 03:50 -23.42181 -46.43777 22953 ft 378 kts 301°
2026-05-05 03:51 -23.40694 -46.46129 22448 ft 376 kts 301°
2026-05-05 03:51 -23.39201 -46.48454 21944 ft 374 kts 301°
2026-05-05 03:51 -23.37708 -46.50760 21452 ft 371 kts 302°
2026-05-05 03:51 -23.36242 -46.53018 20965 ft 369 kts 302°
2026-05-05 03:52 -23.34764 -46.55285 20476 ft 366 kts 302°
2026-05-05 03:52 -23.33298 -46.57537 19992 ft 364 kts 302°
2026-05-05 03:52 -23.31837 -46.59774 19496 ft 362 kts 302°
2026-05-05 03:52 -23.30386 -46.61997 19025 ft 359 kts 302°
2026-05-05 03:53 -23.28830 -46.64122 18525 ft 361 kts 313°
2026-05-05 03:53 -23.26942 -46.65910 18040 ft 358 kts 317°
2026-05-05 03:53 -23.25011 -46.67608 17555 ft 356 kts 318°
2026-05-05 03:53 -23.23713 -46.68744 17243 ft 354 kts 318°
2026-05-05 03:54 -23.21805 -46.70421 16770 ft 351 kts 318°
2026-05-05 03:54 -23.19911 -46.72085 16300 ft 349 kts 318°
2026-05-05 03:54 -23.18031 -46.73738 15836 ft 346 kts 318°
2026-05-05 03:54 -23.16166 -46.75379 15378 ft 343 kts 319°
2026-05-05 03:55 -23.14341 -46.76984 14933 ft 341 kts 319°
2026-05-05 03:55 -23.12504 -46.78599 14479 ft 338 kts 319°
2026-05-05 03:55 -23.10688 -46.80194 14033 ft 334 kts 319°
2026-05-05 03:55 -23.08891 -46.81770 13570 ft 330 kts 319°
2026-05-05 03:56 -23.07125 -46.83318 13149 ft 324 kts 320°
2026-05-05 03:56 -23.05383 -46.84841 12711 ft 319 kts 319°
2026-05-05 03:56 -23.03814 -46.86508 12281 ft 313 kts 306°
2026-05-05 03:56 -23.02831 -46.88568 11913 ft 306 kts 285°
2026-05-05 03:57 -23.02415 -46.90812 11512 ft 301 kts 278°
2026-05-05 03:57 -23.02051 -46.93027 11218 ft 295 kts 283°
2026-05-05 03:57 -23.01226 -46.95026 10921 ft 290 kts 304°
2026-05-05 03:57 -23.00005 -46.96754 10653 ft 287 kts 308°
2026-05-05 03:58 -22.98756 -46.98441 10418 ft 286 kts 308°
2026-05-05 03:58 -22.97512 -47.00138 10183 ft 289 kts 308°
2026-05-05 03:58 -22.96257 -47.01855 9933 ft 291 kts 308°
2026-05-05 03:58 -22.95007 -47.03570 9688 ft 289 kts 308°
2026-05-05 03:59 -22.93761 -47.05279 9434 ft 288 kts 308°
2026-05-05 03:59 -22.92518 -47.06985 9070 ft 287 kts 308°
2026-05-05 03:59 -22.91295 -47.08664 8723 ft 281 kts 308°
2026-05-05 03:59 -22.90081 -47.10334 8384 ft 283 kts 308°
2026-05-05 04:00 -22.88865 -47.12010 7914 ft 281 kts 308°
2026-05-05 04:00 -22.87676 -47.13639 7501 ft 270 kts 308°
2026-05-05 04:00 -22.86543 -47.15201 7128 ft 258 kts 308°
2026-05-05 04:00 -22.85452 -47.16708 6759 ft 249 kts 308°
2026-05-05 04:01 -22.84398 -47.18150 6430 ft 239 kts 309°
2026-05-05 04:01 -22.83377 -47.19557 5916 ft 238 kts 307°
2026-05-05 04:01 -22.82723 -47.21178 5573 ft 236 kts 279°
2026-05-05 04:01 -22.82915 -47.22905 5330 ft 231 kts 248°
2026-05-05 04:02 -22.83864 -47.24258 5088 ft 225 kts 221°
2026-05-05 04:02 -22.85081 -47.25277 4824 ft 218 kts 217°
2026-05-05 04:02 -22.86291 -47.26240 4573 ft 212 kts 217°
2026-05-05 04:02 -22.87450 -47.27175 4443 ft 203 kts 213°
2026-05-05 04:03 -22.88739 -47.27770 4107 ft 205 kts 186°
2026-05-05 04:03 -22.90105 -47.27552 3929 ft 194 kts 148°
2026-05-05 04:03 -22.91193 -47.26748 3814 ft 186 kts 133°
2026-05-05 04:03 -22.91957 -47.25696 3707 ft 170 kts 123°
2026-05-05 04:04 -22.92676 -47.24735 3598 ft 158 kts 127°
2026-05-05 04:04 -22.93349 -47.23844 3461 ft 150 kts 123°
2026-05-05 04:04 -22.93961 -47.22963 3351 ft 148 kts 123°
2026-05-05 04:04 -22.94590 -47.22088 3236 ft 146 kts 124°
2026-05-05 04:05 -22.95211 -47.21219 3216 ft 144 kts 123°
2026-05-05 04:05 -22.95809 -47.20373 3191 ft 140 kts 123°
2026-05-05 04:05 -22.96410 -47.19539 3112 ft 140 kts 124°
2026-05-05 04:05 -22.97002 -47.18707 3012 ft 139 kts 124°
2026-05-05 04:06 -22.97584 -47.17888 2926 ft 141 kts 126°
2026-05-05 04:06 -22.98177 -47.17061 2731 ft 135 kts 127°
2026-05-05 04:06 -22.98748 -47.16252 2559 ft 134 kts 126°
2026-05-05 04:06 -22.99314 -47.15454 2375 ft 134 kts 127°
2026-05-05 04:07 -22.99879 -47.14654 2201 ft 132 kts 127°
2026-05-05 04:07 -23.00405 -47.13918 2157 ft 110 kts 127°
2026-05-05 04:07 -23.00804 -47.13361 2159 ft 74 kts 128°
2026-05-05 04:07 -23.01052 -47.13015 2158 ft 44 kts 128°
2026-05-05 04:08 -23.01206 -47.12860 2156 ft 25 kts 158°
2026-05-05 04:08 -23.01309 -47.12816 2157 ft 14 kts 158°
2026-05-05 04:08 -23.01386 -47.12811 2160 ft 11 kts 206°
2026-05-05 04:08 -23.01384 -47.12869 2157 ft 9 kts 310°
2026-05-05 04:09 -23.01341 -47.12928 2160 ft 11 kts 308°
2026-05-05 04:09 -23.01293 -47.12996 2160 ft 12 kts 307°
2026-05-05 04:09 -23.01239 -47.13071 2159 ft 13 kts 308°
2026-05-05 04:09 -23.01180 -47.13151 2159 ft 14 kts 308°
2026-05-05 04:10 -23.01118 -47.13240 2159 ft 15 kts 307°
2026-05-05 04:10 -23.01050 -47.13335 2161 ft 17 kts 308°
2026-05-05 04:10 -23.00977 -47.13437 2155 ft 18 kts 308°
2026-05-05 04:10 -23.00900 -47.13544 2157 ft 19 kts 308°
2026-05-05 04:11 -23.00818 -47.13658 2161 ft 20 kts 308°
2026-05-05 04:11 -23.00732 -47.13777 2158 ft 21 kts 308°
2026-05-05 04:11 -23.00643 -47.13903 2159 ft 21 kts 308°
2026-05-05 04:11 -23.00557 -47.14021 2161 ft 19 kts 308°
2026-05-05 04:12 -23.00481 -47.14128 2156 ft 17 kts 308°
2026-05-05 04:12 -23.00416 -47.14218 2161 ft 14 kts 307°
2026-05-05 04:12 -23.00361 -47.14295 2156 ft 12 kts 308°
2026-05-05 04:12 -23.00312 -47.14364 2156 ft 11 kts 307°
2026-05-05 04:13 -23.00265 -47.14430 2157 ft 11 kts 308°
2026-05-05 04:13 -23.00217 -47.14495 2161 ft 12 kts 307°
2026-05-05 04:13 -23.00201 -47.14568 2158 ft 10 kts 245°
2026-05-05 04:13 -23.00248 -47.14618 2157 ft 10 kts 217°
2026-05-05 04:14 -23.00303 -47.14664 2157 ft 10 kts 218°
2026-05-05 04:14 -23.00357 -47.14711 2159 ft 9 kts 219°
2026-05-05 04:14 -23.00365 -47.14761 2161 ft 6 kts 303°
2026-05-05 04:14 -23.00338 -47.14796 2156 ft 6 kts 308°
2026-05-05 04:15 -23.00311 -47.14836 2157 ft 7 kts 306°
2026-05-05 04:15 -23.00301 -47.14875 2161 ft 4 kts 258°
2026-05-05 04:15 -23.00312 -47.14891 2156 ft 2 kts 224°
2026-05-05 04:15 -23.00327 -47.14903 2156 ft 3 kts 218°
2026-05-05 04:16 -23.00342 -47.14915 2161 ft 2 kts 218°
2026-05-05 04:16 -23.00346 -47.14919 2157 ft 1 kts 218°
2026-05-05 04:16 -23.00352 -47.14924 2157 ft 1 kts 219°
2026-05-05 04:16 -23.00354 -47.14926 2158 ft 0 kts 219°